GFSGBSN_con_lsi_057.txt.gz
Lid_Strength_Index
-1 -1 -1 -1 -1 -1 -1 -0 1 -0 -1 -1 -1 -0 0 0 0 -0 -0 -0 -0 -0 -0 -0 -1 -0 4 8 8 3 -0 1 4 6 7 8 10 11 12 11 11 13 12 11 10 10 11
1 -1 -1 -1 -1 -0 -0 -0 -0 1 -0 -0 -0 -1 -0 0 0 0 -0 -0 -0 -0 -0 -0 -1 -0 6 11 4 4 4 5 6 7 8 8 10 9 11 12 12 11 11 11 11 11 11
-1 -0 1 -0 -1 -0 0 0 0 0 1 -0 0 -0 -0 -0 0 0 0 -0 -0 0 0 -0 -1 2 7 8 4 5 5 6 6 7 8 8 8 10 10 11 10 11 13 12 12 11 11
-0 -0 -0 -0 -0 -1 -1 -0 0 0 1 1 0 0 0 -0 -0 0 0 0 -0 0 -0 -0 -1 5 10 5 5 6 6 7 6 6 7 7 7 8 10 10 11 13 13 15 12 11 12
-0 -0 0 0 -0 -0 -0 -1 0 -0 1 1 1 1 1 1 0 -0 -0 0 0 -0 -0 -0 4 7 10 3 5 4 6 7 7 7 7 6 8 11 11 13 15 14 16 16 13 11 12
-0 0 -0 1 1 -0 0 -1 -0 -0 0 1 1 2 1 1 1 -0 -0 -0 -0 1 1 2 3 10 8 8 6 5 6 6 8 9 9 9 11 13 14 14 17 16 16 16 15 13 13
-0 0 -1 -1 -0 -0 0 0 0 -1 -0 0 1 1 1 1 1 1 1 4 7 8 6 10 10 11 8 7 6 7 6 7 8 10 12 12 14 14 13 13 14 14 15 16 14 12 13
-0 -0 0 -0 -1 -0 -0 -0 -0 0 0 0 1 1 1 1 1 1 4 6 6 6 9 6 6 7 6 7 9 7 6 9 10 12 12 13 15 12 11 12 13 14 15 15 14 13 13
1 0 -0 -0 0 -0 -0 0 0 1 1 1 1 1 1 1 1 2 4 5 3 4 10 9 6 7 7 7 9 8 7 9 11 12 12 13 12 11 11 13 13 14 15 15 14 14 14
1 1 1 1 1 1 -0 -0 1 1 1 1 1 1 1 1 3 3 4 2 3 5 15 13 10 7 7 7 10 7 7 9 11 12 12 13 11 11 12 13 12 15 12 13 14 15 17
1 1 2 1 1 1 1 -0 -0 -0 0 0 0 1 1 1 3 5 3 2 2 6 19 11 10 6 8 9 10 9 8 9 12 11 11 13 12 12 13 12 11 13 12 13 14 16 17
-0 -0 0 1 2 1 1 0 -0 -0 -0 0 0 -0 0 1 2 3 2 2 4 13 19 13 9 10 10 10 11 10 9 9 10 11 12 13 11 11 11 11 11 12 13 14 15 16 20
1 1 0 -0 0 1 1 1 0 -0 -0 -0 0 0 0 -0 4 1 1 5 14 17 12 14 12 11 11 12 12 12 12 12 13 15 15 14 13 12 11 12 12 12 14 18 20 21 19
2 1 1 1 0 -0 1 1 1 0 -0 -0 0 0 1 0 -0 -0 3 9 17 13 14 11 12 12 12 11 12 13 13 13 12 13 15 15 17 12 11 11 13 13 14 18 22 22 21
2 2 2 2 0 0 -0 0 0 0 -0 -0 0 3 3 1 -0 1 6 15 15 13 11 12 11 13 14 13 13 14 14 14 12 11 14 15 15 13 12 12 10 14 16 13 17 25 22
2 2 2 2 1 1 0 -0 0 0 -0 -1 3 5 5 0 -0 3 9 13 12 9 9 9 13 12 14 14 14 15 15 13 13 11 12 13 17 14 14 12 13 14 13 17 18 23 25
2 2 2 1 2 1 0 -0 -0 0 0 -0 2 6 4 -0 1 6 13 12 10 8 7 10 11 12 12 13 12 15 15 13 13 13 11 13 14 17 15 15 15 15 16 16 16 18 22
2 2 2 2 2 2 1 1 0 0 0 2 4 9 3 0 9 8 11 9 8 8 7 8 9 10 12 12 12 13 14 13 11 11 13 12 13 18 17 15 15 15 15 15 19 21 20
1 2 1 2 1 2 1 1 1 0 0 5 7 7 2 2 12 11 9 9 8 9 9 9 10 9 9 11 14 12 13 11 10 11 13 11 14 20 18 17 16 16 15 14 15 17 19
1 1 1 1 1 1 1 1 1 1 -0 4 9 12 9 6 6 9 10 10 11 8 9 8 9 8 10 11 10 12 12 11 10 10 9 9 13 16 17 17 15 17 16 15 14 17 17
1 1 1 1 1 1 1 1 0 0 0 3 7 10 10 11 11 10 9 10 11 11 9 8 10 10 11 13 12 12 11 11 11 9 9 10 15 13 13 14 15 16 16 15 15 14 16
1 1 1 1 1 1 1 1 1 0 0 3 10 12 10 11 10 10 10 11 11 11 9 11 11 10 10 12 12 13 11 10 11 10 10 9 15 13 14 13 14 15 15 15 14 14 14
1 0 1 1 1 1 1 1 1 0 1 5 6 7 9 10 11 11 10 10 10 9 8 8 9 10 11 10 8 8 8 8 9 10 12 12 13 15 17 13 14 17 14 13 14 13 13
1 1 1 1 1 1 1 1 1 1 1 3 6 7 9 14 11 11 11 10 9 9 10 9 8 9 8 6 7 8 10 9 9 9 9 12 13 14 17 15 21 13 10 11 12 12 12
1 1 1 1 0 1 1 1 1 1 1 4 3 5 8 14 11 10 10 10 9 8 9 9 8 8 7 7 11 13 13 13 13 11 10 10 12 15 17 18 15 13 13 13 13 13 10
0 0 1 0 1 1 1 1 1 1 1 3 5 3 6 9 11 8 10 9 10 11 14 11 9 8 7 10 12 16 17 16 15 14 13 10 10 14 16 19 20 14 13 12 10 15 10
0 0 1 0 0 0 0 1 0 1 0 2 2 2 6 8 7 6 10 10 9 11 15 13 9 9 10 11 14 15 16 14 16 16 18 14 14 16 16 17 16 15 17 13 16 14 17
1 1 1 1 0 0 0 1 0 0 -0 1 2 2 6 7 6 5 5 7 8 8 11 12 11 10 10 13 13 13 14 13 14 15 16 15 16 16 15 17 19 14 15 13 13 16 16
1 1 1 1 0 0 0 0 0 -0 -0 -0 3 2 1 7 7 4 4 4 4 6 7 10 12 11 10 13 11 11 13 12 15 17 13 15 13 15 13 14 10 13 12 13 14 15 15

GFSGBSN_con_lsi_060.txt.gz
Lid_Strength_Index
-1 -1 -1 -1 -1 -1 -0 -0 0 1 1 -1 -1 -0 0 -0 0 0 -0 -0 -0 -0 -0 -0 -1 -1 3 9 9 4 0 1 5 6 8 9 11 11 12 11 12 12 12 12 11 11 11
-0 -1 -0 -1 -1 -1 -0 -1 -0 0 1 1 -0 -0 -0 -0 -0 -0 0 0 -0 -0 -0 -0 -1 -0 6 12 4 4 5 5 6 7 8 9 10 10 11 12 13 12 11 12 11 11 11
-1 -0 0 0 -1 -1 -0 -0 0 0 0 1 1 0 -0 -0 -0 -0 -0 -0 -0 -0 -0 -0 -1 2 7 10 4 5 6 7 7 7 8 8 9 10 11 12 11 11 13 12 13 12 12
-0 -1 -0 -1 -0 -0 -1 -1 -0 0 1 1 1 1 0 0 -0 -0 -0 -0 -0 -0 -0 -0 -1 6 11 5 5 6 6 7 7 7 7 7 8 9 10 11 11 14 14 15 13 12 12
0 -0 -0 -0 0 0 -0 -0 -0 -0 0 1 1 2 1 1 0 -0 -0 -0 -0 -0 -1 -1 5 8 11 4 6 5 7 8 7 8 8 7 8 11 11 13 15 15 17 16 14 12 13
-0 0 -0 -0 0 1 1 0 -0 -0 0 0 1 1 2 1 1 1 -0 -0 -0 0 1 2 4 11 10 9 6 6 7 7 8 9 10 10 12 13 14 14 17 16 17 16 15 13 14
-0 -0 -0 -0 -0 0 1 1 0 1 0 0 1 1 1 1 1 1 3 4 9 9 6 11 11 12 9 7 6 7 7 8 9 10 13 12 14 15 13 14 15 15 16 16 15 13 14
1 0 -0 0 0 -0 0 1 2 1 1 0 0 0 1 1 1 1 4 7 7 6 9 7 7 7 6 6 9 8 7 9 11 13 13 14 15 12 12 13 14 15 16 16 14 13 14
1 1 1 1 1 1 0 0 0 1 1 1 1 1 0 1 1 2 5 5 3 5 10 9 7 7 8 7 9 8 8 10 12 13 13 14 13 11 12 14 14 15 16 16 15 14 15
1 1 2 1 1 1 1 1 0 0 0 1 1 1 1 0 3 3 4 3 3 4 13 12 10 8 8 7 10 7 7 9 12 12 13 14 12 12 13 14 13 16 13 14 15 15 18
0 1 1 2 2 2 1 1 0 -0 -0 0 1 1 1 0 3 4 3 2 2 5 20 11 10 7 8 10 10 10 8 9 12 12 11 14 13 13 13 13 12 14 13 14 14 16 17
1 0 1 0 0 1 2 1 1 0 -0 -0 0 1 0 1 1 2 1 3 5 13 19 14 11 11 10 10 11 10 9 9 10 11 12 13 12 11 12 12 11 12 13 14 16 17 19
1 1 1 1 1 0 0 1 1 1 0 -1 -0 0 1 1 4 0 1 4 13 18 12 13 13 12 12 12 12 12 12 12 13 15 15 14 13 12 11 13 12 13 14 18 20 21 19
1 1 1 1 1 1 0 0 1 1 1 -0 -1 0 2 1 -0 0 2 9 17 13 14 12 12 12 14 13 13 13 13 14 12 14 16 15 17 13 12 11 13 13 13 18 23 22 20
2 2 1 2 2 1 0 -0 -0 -0 0 -0 -0 4 3 2 1 1 6 15 15 13 12 12 12 14 15 13 13 14 14 14 12 12 15 16 16 13 13 12 10 14 15 13 16 25 22
2 2 2 2 1 1 1 0 -0 -0 0 -1 2 4 6 1 0 3 9 13 12 9 10 10 13 12 15 14 14 15 15 14 13 11 12 14 16 15 14 12 13 13 13 17 18 22 25
1 2 2 2 2 1 1 1 -0 -0 -0 -0 2 6 4 0 1 6 12 12 10 8 7 10 12 12 12 13 12 15 14 13 13 13 11 13 14 16 15 15 15 15 15 16 16 18 22
1 1 2 2 2 1 1 1 1 0 -0 2 4 10 4 0 8 8 11 9 7 8 7 8 9 10 11 11 12 13 14 13 11 11 13 12 14 18 16 15 15 15 15 15 18 20 20
1 1 1 2 2 2 1 1 1 1 0 5 7 8 4 2 11 11 9 9 8 9 9 10 10 9 9 11 13 11 13 11 10 10 12 12 14 21 17 17 16 16 15 14 16 17 19
1 1 1 1 1 2 1 1 1 0 0 3 9 14 10 7 8 9 10 10 10 8 8 8 9 9 10 11 10 12 12 11 9 9 8 9 13 15 17 16 15 17 16 15 14 17 17
1 1 1 1 1 1 1 1 1 0 0 2 7 12 10 14 12 10 9 10 11 11 8 8 10 10 11 13 12 12 11 11 11 9 9 9 15 13 13 13 15 15 16 15 15 14 17
1 1 0 0 0 1 1 1 1 0 -0 4 8 10 9 12 10 11 11 11 11 10 9 10 11 10 10 12 11 13 11 11 11 10 10 9 15 13 15 13 13 14 14 14 14 13 13
0 0 0 0 -0 0 0 1 1 1 1 5 5 5 7 10 11 12 11 11 11 10 8 8 9 10 11 10 8 8 8 8 9 10 11 12 13 15 17 13 14 17 14 13 14 13 13
0 0 0 0 0 0 0 0 0 1 1 3 5 5 8 12 11 11 11 10 11 9 10 8 8 9 8 5 6 7 10 10 10 11 10 13 13 14 17 15 21 13 11 10 12 12 12
0 -0 0 0 0 0 0 0 0 1 0 3 4 6 8 11 10 11 11 11 11 11 10 9 7 7 5 7 11 13 13 14 13 12 11 11 13 15 18 17 15 13 13 13 13 13 10
-0 -0 -0 0 1 1 1 0 0 0 0 2 3 3 7 10 11 9 11 11 12 13 15 13 10 7 6 12 12 16 17 16 17 14 13 11 11 14 16 19 21 14 15 12 11 15 10
-1 -1 -0 -0 0 1 1 0 0 0 -0 2 3 3 6 9 9 9 11 11 10 12 15 16 15 10 8 10 14 15 16 12 16 16 15 14 14 16 16 17 16 14 16 13 16 14 16
-1 -1 -0 -0 0 0 0 0 -0 -0 -0 2 5 2 5 8 8 7 6 8 10 11 12 13 9 9 9 12 13 14 14 13 14 13 14 15 16 16 15 17 19 13 14 13 12 14 15
-1 -1 -0 -0 -0 0 0 -0 -0 -0 -0 0 6 2 2 7 8 6 5 3 4 5 7 12 12 14 8 14 11 11 13 13 15 16 13 15 12 14 13 14 10 12 13 12 13 12 13

GFSGBSN_con_lsi_063.txt.gz
Lid_Strength_Index
-1 -1 -1 -1 -1 -0 -0 0 1 1 0 1 -0 -0 0 0 0 -0 -0 -0 -0 -0 -0 -0 -1 -1 4 10 9 4 0 1 6 6 8 9 10 10 12 11 11 12 11 11 10 10 11
0 -0 -1 -1 -1 -1 -1 -1 -0 0 0 1 1 -0 -0 0 0 -0 -0 -0 -0 -0 -0 -0 -1 -1 6 13 5 4 5 6 6 7 9 9 10 9 10 11 12 11 11 11 10 10 10
-1 -1 -0 0 -0 -1 -1 -1 -0 -0 0 1 2 1 0 -0 -0 -0 0 -0 -0 -0 -0 -0 -1 3 9 10 4 6 6 7 7 7 8 8 8 9 10 11 10 11 12 11 12 11 11
-0 -1 -1 -1 -0 -0 -0 -1 -1 -1 0 1 1 1 1 0 -0 -0 -0 -0 -0 -0 -1 -1 -1 6 11 6 5 6 7 7 7 7 7 7 7 8 9 10 11 12 13 14 12 11 11
-0 -0 -0 -0 0 0 -0 -1 -1 -1 -0 0 1 2 1 1 1 0 -0 -0 -0 -0 -1 -1 5 8 12 3 6 5 7 7 7 8 8 7 8 10 10 12 14 14 16 15 13 11 12
-0 1 1 0 0 1 0 0 0 -0 -0 0 1 1 1 1 1 1 1 -1 0 1 2 3 4 12 10 9 6 6 7 7 8 9 9 9 11 13 14 14 17 16 16 16 15 13 13
1 0 0 0 0 0 1 1 1 0 1 0 1 1 1 1 1 1 3 6 9 11 7 11 11 12 9 7 6 7 7 8 9 10 13 12 13 14 13 14 14 15 16 16 14 12 13
1 1 1 1 1 1 1 1 2 1 2 1 1 0 1 1 1 1 3 8 7 6 9 6 7 8 7 7 9 8 7 9 11 13 13 14 15 12 12 13 13 14 15 15 14 13 13
2 2 2 2 1 1 1 1 1 1 1 1 1 2 1 1 1 2 4 6 4 6 10 9 7 7 8 7 9 8 8 10 12 13 13 14 13 12 12 14 14 15 15 15 14 14 14
1 2 2 2 2 2 2 2 1 1 1 2 2 1 2 1 3 3 4 3 3 6 12 11 10 8 8 7 10 7 8 9 12 12 13 14 12 12 13 14 13 16 13 14 14 15 17
1 1 1 1 1 2 2 2 2 1 0 0 1 1 1 0 3 3 3 2 3 5 20 11 12 7 8 10 10 9 8 10 12 12 12 14 13 13 14 13 12 14 13 14 15 16 16
1 1 1 1 1 1 1 2 2 1 1 0 1 1 1 1 1 1 1 2 4 13 19 12 11 11 12 11 11 10 10 9 10 12 12 14 12 12 12 12 12 12 13 14 15 16 19
1 1 1 1 1 2 1 1 2 2 1 0 -0 0 1 1 3 0 1 4 14 18 12 13 13 12 13 13 13 12 12 12 13 15 15 14 13 12 11 13 12 13 14 18 19 20 19
1 1 1 1 1 2 2 1 0 1 1 1 0 0 2 1 1 0 2 9 17 13 13 12 12 13 14 13 14 14 13 14 12 14 16 16 17 13 11 12 13 13 14 17 22 22 20
1 2 1 1 1 2 2 1 0 -0 0 1 0 4 4 2 1 1 6 15 15 13 11 12 12 15 15 13 14 15 15 15 13 12 15 16 16 13 13 12 11 14 15 13 16 24 21
1 1 1 2 2 1 1 1 0 -0 -0 0 4 5 5 2 1 3 9 13 11 9 9 9 13 12 15 14 15 15 16 14 14 12 13 14 16 14 13 12 13 13 12 16 17 22 24
1 1 1 1 2 1 1 1 0 -0 -0 -0 4 8 4 1 2 6 12 11 10 8 7 10 12 12 12 13 13 16 15 14 13 13 11 13 15 16 14 15 15 14 15 16 15 17 21
0 1 1 1 2 2 2 1 1 0 -0 2 6 11 4 1 8 8 11 10 7 9 7 8 9 10 11 11 12 14 14 12 11 11 13 12 14 18 16 15 15 15 15 15 17 20 19
1 1 0 1 1 2 2 1 1 1 0 4 9 7 4 3 12 11 10 9 8 9 9 9 10 9 9 11 13 12 12 11 10 10 12 12 14 21 17 17 16 16 15 14 15 17 18
1 1 1 0 1 1 2 2 1 1 0 3 8 13 10 7 7 10 11 11 11 8 8 8 9 9 10 12 10 12 12 10 9 9 8 9 12 15 17 16 15 17 16 15 14 18 16
0 1 1 1 0 1 1 1 1 1 0 2 7 12 10 14 12 11 9 9 11 11 8 8 10 10 10 13 12 12 10 10 9 9 8 9 14 13 12 13 14 14 15 14 14 14 16
-0 0 0 1 0 1 1 1 1 0 0 4 8 9 9 12 10 11 11 12 12 10 9 10 11 9 9 12 11 12 11 10 11 10 10 9 14 13 15 12 12 14 14 15 14 13 13
-0 -0 -0 0 0 0 0 0 0 1 1 5 5 5 7 10 12 12 12 12 12 11 10 8 9 10 10 9 8 8 7 9 9 11 13 12 13 15 17 13 14 17 14 13 13 12 13
-0 -0 -0 -0 -0 -0 0 -0 0 0 1 4 4 5 8 13 10 11 11 10 10 10 11 9 8 9 8 6 5 6 8 9 9 9 9 13 14 14 16 15 21 13 10 10 11 11 11
-0 -0 -0 -0 -0 -0 -0 -0 0 -0 -0 5 4 5 8 11 10 11 11 11 11 10 11 11 9 8 5 8 11 12 12 12 12 11 11 10 13 15 17 18 15 13 13 14 13 13 10
-1 -1 -0 -1 -1 -1 -1 -1 -0 -0 -0 4 3 3 7 11 12 9 11 10 12 14 16 13 11 8 7 11 13 15 17 18 17 13 12 11 11 14 16 19 20 14 12 12 11 15 10
-1 -1 -1 -1 -1 -1 -1 -1 -1 -0 -0 2 5 2 5 9 10 8 12 12 9 11 14 17 16 10 8 12 14 15 15 12 16 17 15 14 14 16 16 17 15 11 13 12 16 14 16
-1 -1 -1 -1 -1 -1 -1 -1 -1 -0 -0 1 4 3 5 9 10 8 8 10 11 11 12 14 13 12 10 13 18 16 14 13 14 13 13 15 15 16 15 17 19 11 12 13 10 13 13
-1 -1 -1 -1 -1 -1 -1 -1 -1 -0 -0 -0 5 2 2 7 9 5 6 7 6 7 9 13 11 15 10 16 17 19 17 17 18 17 12 15 12 14 14 14 10 11 10 11 12 13 13

GFSGBSN_con_lsi_069.txt.gz
Lid_Strength_Index
1 -0 -1 -1 -1 -0 -0 -0 0 -0 -1 0 -0 -0 0 0 0 -0 -0 -0 -0 -0 -1 -1 -1 -1 1 5 5 2 -0 2 3 3 4 5 6 6 8 7 7 8 7 7 6 7 6
0 1 0 -1 -1 -1 -1 -0 -0 0 -0 -0 -1 -0 0 0 0 -0 -0 -0 -0 -0 -0 -0 -1 -1 3 8 2 2 3 3 3 4 4 5 6 5 7 7 7 7 7 7 7 6 7
-0 -0 0 -0 -1 -1 -1 -1 -0 0 0 -0 -1 -0 -0 0 0 0 -0 -0 -0 -0 -0 -0 -1 1 5 6 1 2 3 3 3 3 5 4 4 5 6 7 6 7 8 7 7 7 7
0 -0 -0 -1 -0 -0 -0 -1 -1 -0 0 0 0 -0 -0 0 0 0 -0 -0 -0 -0 -0 -1 -1 2 6 3 1 3 3 3 3 3 3 4 4 5 5 6 7 8 8 10 7 7 7
1 1 1 0 0 0 0 -0 -0 -0 -0 1 1 1 0 -0 0 0 0 -1 -0 -0 -0 -1 2 4 7 1 3 2 3 4 4 4 4 4 4 6 6 8 9 8 11 10 9 7 7
0 2 1 1 1 1 1 1 1 1 0 0 1 1 1 1 1 1 0 -0 0 0 1 1 3 7 6 7 3 3 3 3 4 4 5 5 6 8 8 9 12 10 10 10 9 8 8
1 2 2 2 2 1 2 2 2 1 1 1 1 1 1 1 1 1 0 2 4 5 4 7 7 8 7 4 3 4 4 4 4 5 8 7 9 11 9 8 8 9 10 10 9 8 9
1 2 2 2 3 2 2 2 2 2 2 2 2 1 0 0 1 1 1 4 4 3 6 4 5 6 5 3 6 4 4 6 6 8 7 8 10 8 7 8 9 9 10 10 8 8 10
1 1 1 2 3 3 3 2 3 3 3 3 2 2 1 -0 0 0 1 4 2 3 7 6 4 6 5 5 7 6 4 6 7 8 8 9 9 7 8 9 10 9 10 10 10 9 9
2 2 2 2 2 2 4 3 3 1 3 3 3 3 2 1 2 1 3 1 1 3 10 9 7 5 5 5 8 4 4 6 7 9 8 9 8 9 9 10 9 11 8 9 10 11 13
2 2 2 2 2 2 2 2 3 2 2 2 1 3 2 1 2 3 2 2 2 3 20 8 9 6 7 7 7 7 4 5 8 8 8 10 9 9 10 9 8 10 9 9 10 11 11
2 2 2 2 3 3 3 3 2 3 2 2 2 1 2 2 1 1 1 2 4 13 19 10 8 9 10 9 10 8 7 5 6 8 8 8 8 8 8 9 8 8 9 9 9 10 15
1 1 2 2 2 3 3 3 3 2 2 3 2 1 1 2 3 -0 1 3 14 18 9 11 11 10 9 10 10 10 10 10 11 12 12 9 9 8 8 10 9 9 10 14 14 15 16
1 1 1 2 2 2 3 3 3 3 2 3 3 2 1 2 1 -1 2 9 17 12 11 9 10 10 11 10 10 10 10 12 10 10 11 12 13 10 8 9 10 10 10 13 18 16 14
1 1 1 1 2 2 2 3 3 3 2 2 2 2 2 1 1 1 6 15 15 11 9 10 10 11 11 11 10 11 11 11 10 10 13 12 12 9 8 8 8 10 12 9 12 14 15
-0 1 0 1 2 2 2 2 3 2 2 1 3 3 3 0 -0 3 9 13 11 8 8 8 12 10 12 11 11 11 11 9 10 9 9 11 13 11 10 9 8 9 8 12 12 18 18
-0 1 1 1 1 1 1 2 2 1 1 1 3 7 3 -0 -0 6 12 11 9 7 7 9 11 12 11 12 10 11 11 9 9 9 8 10 12 13 12 12 12 11 12 11 11 12 16
0 0 0 0 1 1 1 1 2 1 1 1 4 9 1 -0 8 7 10 8 6 7 6 7 8 9 10 10 12 11 11 9 8 8 11 9 11 14 13 10 9 10 11 11 13 14 13
0 0 -0 0 0 1 1 1 1 2 1 2 6 6 1 2 10 10 7 8 7 7 8 8 9 8 7 10 12 10 9 7 7 8 10 10 12 16 14 11 11 12 11 11 11 12 15
1 1 0 -0 0 0 1 1 1 1 1 2 5 10 6 5 5 7 9 9 9 6 7 7 8 7 9 10 9 11 10 8 7 8 8 8 12 14 16 12 10 13 12 11 12 14 14
1 1 0 0 0 0 0 0 1 1 1 2 6 8 6 10 9 8 7 8 9 9 7 6 8 8 9 11 11 12 10 9 8 7 8 10 15 13 12 11 11 11 11 11 12 12 14
1 1 1 1 0 0 1 0 0 0 0 4 8 8 6 7 7 8 8 9 9 8 8 9 9 8 8 10 9 10 9 9 9 8 8 9 14 12 14 11 11 13 12 11 11 11 11
2 1 1 1 1 0 0 0 0 1 0 4 4 5 6 8 9 9 10 9 8 7 7 6 7 8 9 8 6 6 7 7 8 10 11 11 13 14 17 12 13 16 13 12 11 10 10
2 2 1 1 1 0 0 -0 -0 -0 0 2 3 5 8 10 9 9 8 8 8 7 8 7 6 8 6 4 5 5 6 7 7 8 7 11 12 13 16 14 20 12 8 9 10 10 9
3 2 2 2 1 1 0 -0 -1 -1 -0 2 1 4 8 10 8 8 8 8 8 7 8 7 7 6 4 6 10 11 11 12 11 9 8 8 11 14 16 17 14 12 10 10 11 11 7
2 2 2 2 1 1 0 -1 -1 -1 -1 2 1 1 5 9 9 7 8 7 9 9 9 8 6 5 5 8 11 15 16 13 13 12 9 9 9 13 14 18 19 12 9 8 8 14 9
3 3 3 2 2 1 1 -1 -1 -1 -1 1 3 0 4 8 7 6 9 9 7 8 9 9 9 9 7 10 12 13 14 11 15 14 14 13 13 15 15 17 14 9 8 7 15 13 10
3 3 3 2 2 1 1 0 -1 -1 -2 -0 2 1 3 7 6 5 6 7 7 7 9 9 9 9 9 11 12 12 12 11 12 12 12 12 13 14 14 16 18 7 8 13 10 8 9
3 3 3 2 2 1 1 1 -1 -1 -1 -1 3 1 1 5 6 3 4 4 4 4 5 8 8 8 7 9 10 9 11 10 11 14 9 13 11 12 12 12 8 7 7 6 6 8 8

GFSGBSN_con_lsi_072.txt.gz
Lid_Strength_Index
0 -0 -0 -1 -0 -0 0 0 0 1 1 0 1 -0 -0 0 0 -0 -0 -0 -1 -1 -1 -1 -1 -1 1 4 4 2 -0 0 3 3 5 6 7 7 9 9 8 10 9 8 7 8 8
0 1 0 1 -1 -0 -0 0 0 -0 1 1 0 -0 -0 -0 0 -0 -0 -0 -0 -1 -1 -1 -1 -1 3 8 1 2 3 3 3 4 5 5 7 7 8 9 9 8 8 9 8 8 8
-0 -0 -0 0 -0 -0 -0 -0 -0 -0 -0 1 -0 0 -0 0 0 0 -0 -0 -0 -0 -0 -1 -1 1 5 6 1 2 3 3 3 4 5 5 5 7 7 8 7 8 10 10 9 8 9
0 -0 -1 -0 -0 -0 -0 -0 -0 -0 0 1 1 0 0 -0 0 -0 -0 -1 -1 -1 -1 -1 -1 2 7 2 2 3 3 4 3 3 4 4 5 5 6 7 8 10 11 13 10 9 9
0 1 1 -0 0 -0 -0 0 -0 -0 0 1 1 1 1 -0 0 0 -0 -1 -1 -1 -0 -1 2 4 7 1 3 3 3 4 4 4 4 4 4 7 7 10 12 11 15 13 11 8 9
1 1 2 2 1 1 1 0 1 1 1 0 1 1 1 1 1 1 -0 -1 -0 0 1 1 3 7 7 6 3 3 4 3 5 5 6 6 7 9 10 12 15 13 14 12 13 10 10
1 2 2 3 2 2 2 1 1 1 1 1 1 1 0 1 1 0 0 1 5 5 4 7 7 8 7 4 3 4 4 5 5 6 10 8 11 13 11 10 10 12 12 13 12 10 11
1 1 2 3 4 3 3 2 2 2 2 2 2 1 0 0 1 0 1 4 3 3 7 5 6 6 5 4 6 5 4 7 7 10 8 10 12 9 8 9 10 12 13 13 11 10 12
2 2 1 1 3 4 4 3 3 2 2 3 3 2 1 1 0 1 2 3 1 2 8 6 5 6 6 5 7 6 6 7 8 9 9 11 10 8 9 10 11 12 13 13 13 11 12
2 2 2 2 2 3 4 4 4 3 3 3 3 3 3 1 2 1 3 1 1 2 11 10 7 5 6 6 8 4 5 7 9 10 9 10 8 10 10 11 11 13 11 11 11 13 17
2 2 2 2 2 3 4 4 4 4 3 4 3 3 3 2 2 4 2 2 2 3 19 8 8 4 6 8 8 7 5 7 9 10 10 11 11 11 11 10 10 12 10 11 12 14 14
1 2 2 3 3 3 3 3 4 4 3 3 3 4 3 2 2 2 1 2 3 13 19 11 9 10 10 9 9 7 7 6 7 9 9 10 9 9 10 9 9 9 11 11 12 13 18
1 1 2 2 3 3 3 3 4 5 4 4 3 2 3 4 4 1 2 4 14 18 9 12 11 9 10 11 11 10 11 11 12 13 13 11 11 10 9 11 10 11 13 17 18 19 19
0 1 1 1 2 3 2 3 3 4 4 4 2 3 2 3 2 1 3 9 17 13 11 9 10 10 11 10 11 11 12 13 11 12 13 14 16 11 9 10 11 12 12 16 21 20 19
0 -0 1 1 1 2 3 3 3 3 3 2 3 3 3 1 2 1 7 15 15 12 9 10 10 12 12 11 12 12 13 13 11 11 15 15 15 11 10 10 9 12 14 11 15 19 19
-0 -0 0 0 1 2 2 3 3 3 2 2 4 5 4 0 0 3 9 13 11 8 8 8 12 10 13 12 13 13 13 11 11 10 10 13 16 13 12 11 11 12 10 15 15 21 22
-0 -0 -0 1 0 1 2 2 3 2 2 2 4 8 3 -0 1 6 13 11 9 7 7 10 11 12 12 11 12 13 13 11 10 10 9 11 13 15 13 14 14 14 14 13 13 15 19
-1 -0 -0 0 0 0 1 1 2 2 1 2 4 10 2 1 9 8 11 9 7 8 7 8 8 9 11 11 12 12 12 11 9 9 11 10 12 16 14 12 12 13 14 13 17 18 17
-0 -0 -0 -0 -0 0 0 1 1 2 1 2 6 7 1 2 12 11 8 8 7 8 9 8 9 8 8 11 14 11 11 8 8 9 11 10 13 18 16 14 13 14 13 12 12 15 17
0 -0 -0 0 0 -0 0 0 1 1 1 3 6 10 6 5 6 9 10 10 10 6 7 7 8 8 9 11 9 11 11 9 7 9 8 8 12 15 17 14 12 14 13 12 12 16 16
1 1 0 0 0 -0 -0 0 1 1 1 3 7 9 7 11 10 9 8 9 10 10 7 7 9 9 10 12 11 11 10 10 8 8 9 10 14 13 12 12 12 12 13 12 14 13 15
1 1 1 0 0 0 -0 -0 0 1 0 5 8 8 7 9 8 10 9 10 10 9 9 9 10 9 9 11 10 12 10 10 11 9 10 9 14 13 16 13 12 14 12 12 12 12 12
2 2 2 1 1 0 0 0 0 0 1 6 5 5 7 9 9 9 10 10 9 8 7 7 7 9 9 8 7 7 7 8 8 10 11 11 13 14 17 13 14 16 13 12 12 10 11
3 3 2 2 1 1 1 0 0 0 1 4 4 6 9 12 10 10 9 8 9 8 9 7 7 8 7 5 6 7 7 8 8 9 8 12 12 13 17 16 20 13 9 9 11 10 9
3 3 3 2 2 2 1 1 0 0 0 4 3 6 9 12 10 10 9 9 8 7 8 7 7 5 5 7 12 17 18 17 14 10 9 8 11 15 20 21 15 13 12 12 12 13 9
3 3 3 3 3 2 2 1 1 0 -0 2 4 3 6 11 12 8 9 9 11 12 10 9 8 6 6 10 15 21 22 18 20 16 11 10 9 13 19 20 23 13 10 8 8 14 10
3 3 3 3 3 2 2 2 1 1 -0 1 4 3 5 9 9 8 9 10 8 9 12 13 13 11 9 13 18 19 20 14 20 21 14 13 12 14 15 16 14 10 10 9 16 14 11
3 3 3 3 3 3 2 2 1 1 1 1 3 2 5 8 8 7 6 9 9 8 13 10 10 10 12 13 15 16 18 15 16 14 15 14 15 16 14 16 18 8 11 13 10 11 10
3 3 3 3 3 2 2 2 1 1 1 -1 3 1 1 6 8 5 5 4 5 5 8 9 11 13 10 14 15 15 18 16 16 21 12 15 14 16 14 15 9 8 10 8 7 8 9

GFSGBSN_con_lsi_075.txt.gz
Lid_Strength_Index
-0 -0 -1 -1 -2 -1 -0 0 0 0 0 0 0 -0 0 -0 -0 -0 -1 0 0 -1 -1 -1 -1 -1 1 6 5 3 0 1 4 5 6 7 9 9 11 11 10 11 11 10 8 9 10
-0 0 -0 0 -1 -1 -0 0 0 0 0 1 1 0 1 -0 -0 -0 -0 0 1 -0 0 -1 -1 -1 4 10 2 3 4 4 4 5 7 7 8 8 10 10 11 10 10 10 9 9 10
-1 -1 -0 -0 -0 -1 -0 -0 -0 0 -0 0 1 1 1 0 -0 -0 -0 0 0 -0 -1 -1 -1 1 7 8 2 4 4 4 4 5 7 6 7 8 9 10 9 10 12 11 11 10 10
-1 -0 -1 -1 -1 -1 -0 -0 -0 -0 0 1 1 2 2 1 -0 -0 -1 -1 -0 -1 -1 -1 -1 3 9 3 4 4 4 5 5 5 5 6 6 7 8 9 10 12 13 15 11 10 10
1 0 0 0 -0 -0 -1 -0 0 -0 0 1 1 1 1 1 1 -0 -0 -1 -1 -1 -0 -1 4 6 9 2 4 4 5 5 5 5 6 5 6 8 9 12 14 14 17 15 13 10 11
2 2 1 2 1 0 1 -0 -0 0 0 0 1 1 1 1 1 0 -0 -1 -1 0 1 1 4 10 8 7 4 4 5 5 6 7 7 8 9 11 12 14 17 16 16 14 15 11 12
1 2 2 2 2 2 1 1 1 1 1 1 1 1 1 1 1 -0 1 2 7 7 6 9 9 9 7 5 4 5 5 6 6 8 12 10 13 14 12 12 12 13 14 15 14 11 12
1 0 2 2 3 3 2 2 1 1 2 2 2 1 0 0 1 0 2 5 5 5 8 6 7 7 6 5 7 6 5 8 9 12 10 12 14 11 11 11 11 13 14 15 13 11 13
2 1 3 3 3 3 3 3 3 2 2 2 3 3 2 1 1 1 3 4 2 3 8 7 6 7 7 5 8 7 6 8 10 11 11 13 11 9 10 12 12 13 14 15 14 13 13
2 2 2 3 4 4 4 4 4 4 3 3 3 3 3 2 2 2 4 2 2 4 12 10 8 7 7 7 10 5 6 8 10 11 11 12 10 11 11 12 11 14 12 12 13 15 18
2 2 2 3 3 5 4 5 4 4 4 4 4 4 4 3 3 4 3 2 2 4 21 9 8 5 7 10 9 8 7 8 11 11 11 12 12 12 12 12 11 13 11 12 13 15 16
1 2 2 3 3 3 4 5 5 5 4 4 4 4 3 3 2 2 2 2 3 13 20 11 9 9 10 9 9 8 8 7 8 10 11 12 10 11 11 11 11 10 11 12 14 15 20
0 2 2 2 3 3 3 4 5 5 5 5 4 4 4 4 4 2 2 4 14 18 10 12 12 11 11 12 11 10 11 11 13 14 14 13 12 11 10 12 11 12 14 18 19 20 20
0 1 1 2 2 3 3 3 4 5 5 5 4 4 5 4 3 2 3 10 17 13 12 10 10 11 13 12 12 12 12 14 12 13 14 15 16 12 10 11 12 13 14 18 22 20 19
-0 0 -0 1 1 2 3 3 3 3 4 4 4 7 6 4 3 2 7 15 15 13 10 11 11 13 13 12 13 13 14 14 13 12 15 16 15 11 11 11 10 13 15 12 16 22 20
-0 -0 -0 -0 1 1 2 3 3 4 3 3 7 7 8 3 3 3 9 13 12 8 8 9 13 12 15 13 14 14 14 12 12 11 12 14 17 14 13 11 11 12 11 15 16 22 23
-0 -0 -0 -0 0 1 2 2 3 3 2 2 6 11 6 3 3 6 13 12 10 8 7 10 12 13 12 13 14 14 13 12 11 12 11 13 14 16 14 15 15 15 15 15 15 16 20
-0 -1 -1 -1 -0 0 1 1 2 3 2 3 7 12 5 3 9 9 11 9 8 8 7 8 9 10 11 11 12 13 13 12 10 11 13 12 13 18 16 14 13 14 14 14 18 19 18
-0 -0 -0 -0 -0 -0 0 0 1 2 1 5 9 9 4 3 13 13 11 9 8 10 9 9 10 9 9 11 14 11 11 9 9 11 12 11 15 21 17 15 13 15 14 13 13 16 17
0 -0 -0 -0 -0 -0 -0 -0 0 1 1 3 8 13 8 6 9 11 11 11 10 7 9 9 9 8 9 11 10 11 12 9 9 9 8 9 13 17 19 15 12 15 13 12 13 19 17
1 1 0 0 -0 -0 -0 -0 -0 1 1 4 7 11 9 12 12 10 10 10 11 11 8 8 10 9 10 12 12 12 11 10 9 8 9 9 14 13 13 12 12 13 13 13 14 14 16
1 1 1 1 0 0 -0 -0 -0 0 0 7 9 10 9 10 10 11 11 12 11 10 9 10 10 9 10 12 11 13 11 11 11 10 10 10 16 13 15 13 12 14 13 13 12 12 12
2 1 1 1 1 1 0 -0 -0 -0 1 6 8 5 8 10 10 12 12 11 10 9 8 8 8 9 11 10 9 9 9 9 10 11 11 11 13 15 22 15 15 19 15 13 12 11 11
2 2 2 2 2 1 1 0 -0 -0 1 6 7 7 9 15 12 11 10 10 10 9 10 9 8 9 8 6 7 9 11 9 9 10 9 11 12 13 23 21 27 16 13 12 12 11 10
2 2 2 3 2 2 1 1 0 -0 -0 4 5 8 10 12 12 12 11 11 9 9 10 9 8 7 6 8 14 18 19 17 17 13 10 10 13 20 22 27 18 15 14 13 13 13 10
2 2 3 2 2 2 2 2 1 0 0 2 4 5 10 15 13 10 12 11 14 13 13 11 9 7 7 10 13 18 22 20 21 17 13 9 10 14 24 22 23 16 12 8 8 15 9
2 2 3 3 3 3 3 2 2 1 1 2 4 3 6 10 12 10 14 12 10 12 14 15 11 9 9 13 16 20 21 16 21 19 15 14 13 15 15 16 17 12 12 9 17 15 12
2 2 3 3 3 3 2 2 2 1 1 2 3 3 6 9 11 9 8 11 12 12 14 13 10 10 12 15 17 18 21 16 18 16 15 16 18 18 19 17 18 10 11 12 11 11 10
2 2 3 3 3 3 3 2 2 1 1 1 5 2 3 7 11 7 6 6 7 7 10 13 13 15 11 14 17 18 19 20 18 20 13 17 14 16 14 15 10 9 10 9 8 10 10

GFSGBSN_con_lsi_078.txt.gz
Lid_Strength_Index
-0 -1 -1 -1 -1 -1 -1 -1 -1 -1 -2 -1 -1 -1 -1 -0 0 1 1 1 -0 0 0 0 0 -1 1 7 6 4 0 1 4 5 7 8 9 10 12 11 11 12 12 10 9 10 10
-1 -0 -1 -1 -1 -1 -1 -1 -1 -1 -1 -1 -1 -0 -1 -1 -0 0 1 1 -0 -0 -0 0 -0 -1 5 10 3 4 4 5 5 6 7 8 9 9 11 11 12 11 11 11 10 10 11
-0 -1 -1 -1 -1 -1 -1 -1 -1 -1 -0 -1 -0 -0 -0 -0 -0 -0 -0 -0 0 -1 -1 -1 -1 1 7 8 3 4 4 5 5 6 8 7 8 9 10 11 10 10 13 12 12 11 11
-0 0 -1 -1 -1 -1 -1 -1 -1 -1 -0 0 0 1 1 1 -0 -0 -1 -1 0 -0 -0 0 -1 4 9 4 4 4 5 5 5 5 6 6 7 8 9 9 10 13 13 16 13 11 11
1 1 0 -0 -1 -1 -0 -1 -1 -0 0 1 1 1 1 1 0 0 -0 -1 -1 -0 1 0 4 8 9 2 5 5 5 6 6 6 6 5 7 9 10 13 14 14 18 16 14 11 11
2 1 1 1 1 -0 0 -0 -1 -0 0 1 1 1 2 1 1 0 -0 -1 -1 1 2 3 6 11 8 8 4 5 6 5 7 7 8 8 10 12 13 15 18 16 16 15 16 12 13
2 2 2 2 1 1 1 1 0 0 1 1 1 1 1 1 1 0 1 4 7 8 7 11 11 11 7 5 4 5 5 6 7 9 12 11 13 15 13 13 14 14 15 16 15 12 13
2 2 2 2 3 2 2 2 2 1 1 2 2 1 0 0 0 1 2 6 6 6 10 7 8 8 6 5 7 6 6 9 10 12 11 13 15 12 12 12 13 14 15 16 14 12 13
2 2 3 3 3 3 3 3 3 2 2 3 2 3 2 1 1 2 4 5 3 3 8 7 7 8 8 6 8 7 7 9 11 12 12 14 13 11 11 13 13 14 15 15 15 14 15
2 3 4 4 3 4 3 3 3 4 4 4 3 4 3 1 3 3 4 3 2 3 12 10 8 7 7 7 10 6 7 8 11 12 11 12 11 12 12 13 12 15 12 13 14 16 18
2 2 2 3 4 4 4 4 5 4 4 4 4 5 4 2 3 4 3 3 3 5 20 9 8 5 7 10 9 8 7 9 11 11 11 13 12 12 13 12 12 13 12 13 14 16 17
1 2 2 3 5 5 5 5 5 5 5 5 4 4 4 2 2 2 2 3 4 13 20 12 9 10 10 10 9 8 8 8 9 11 12 12 11 11 11 11 12 11 12 13 15 17 20
0 1 3 2 4 6 5 6 5 6 5 5 5 4 4 3 4 2 2 4 14 18 10 12 12 11 11 11 11 10 11 11 13 15 15 13 13 12 11 12 12 13 15 19 20 21 21
-0 0 1 2 2 3 6 6 5 6 5 5 5 4 5 3 2 2 3 10 17 13 13 10 10 11 12 11 12 11 12 13 12 14 15 16 16 12 11 12 13 14 15 18 23 22 20
-1 -0 0 0 1 2 3 5 6 6 6 5 5 7 7 4 3 2 7 15 15 13 10 12 11 13 13 12 12 13 13 13 12 12 15 15 15 12 12 11 11 13 15 14 17 24 21
-1 -0 -0 -0 -0 1 2 3 4 6 5 4 8 9 8 4 3 4 9 14 12 9 9 10 13 12 15 14 14 14 15 13 13 12 12 14 16 13 12 11 12 13 12 15 17 22 24
-1 -1 -0 -0 -0 0 1 2 2 3 3 3 8 12 8 4 3 7 13 12 10 8 8 10 12 13 14 14 14 15 14 13 12 12 12 13 15 16 14 14 14 13 14 14 14 17 21
-1 -1 -1 -1 -1 -0 0 1 1 3 2 4 8 14 6 5 9 10 12 10 9 9 7 9 9 10 12 12 13 13 14 13 10 11 14 13 14 18 16 15 14 14 14 14 17 19 19
-0 -1 -1 -1 -1 -1 -0 0 1 2 2 5 10 11 5 4 13 13 13 11 10 10 9 9 10 9 9 12 14 12 12 10 10 11 12 11 15 19 17 15 14 15 15 14 15 17 20
0 0 -0 -0 -0 -1 -0 -0 -0 1 1 5 8 13 10 7 9 12 13 12 12 10 10 9 9 9 10 12 10 12 12 10 9 9 9 10 14 17 18 17 14 15 15 13 15 20 18
0 0 0 -0 -0 -0 -0 -0 -1 -0 1 5 7 11 11 15 11 11 11 11 12 13 9 9 11 10 11 13 12 12 11 11 9 9 10 11 17 15 15 13 13 13 14 14 14 14 16
1 1 0 0 0 -0 -0 -0 -0 -1 0 7 9 10 10 11 11 11 11 13 12 11 11 11 11 11 10 12 11 13 11 11 11 11 11 12 16 15 16 13 13 15 14 13 14 14 13
1 1 1 1 1 1 0 -0 -1 -1 1 6 8 6 8 11 12 12 12 12 11 10 9 9 9 10 11 11 11 11 10 10 10 12 12 14 14 16 20 16 15 19 15 14 13 12 11
1 1 1 1 1 1 1 0 -0 -0 1 6 8 8 10 15 12 12 10 10 10 10 10 9 9 10 9 8 9 11 12 11 11 12 11 14 16 19 23 21 22 16 15 13 13 12 11
1 1 1 1 1 1 1 1 0 -0 -0 4 6 8 10 17 12 11 11 11 10 9 10 10 9 8 7 9 14 18 17 14 14 14 13 12 15 20 21 26 20 18 16 15 15 15 11
1 1 1 1 1 2 1 1 1 1 -0 2 4 6 11 15 14 10 12 11 14 14 13 11 9 8 8 12 17 21 21 19 20 17 14 11 12 15 27 27 27 19 13 12 10 17 11
1 1 1 1 2 2 2 2 1 1 1 2 4 4 7 14 12 10 13 12 10 12 14 15 11 9 9 13 18 21 21 17 20 20 19 13 13 15 22 25 20 15 12 10 18 16 13
1 1 1 1 2 2 2 2 2 2 1 2 3 3 5 9 11 9 8 11 12 12 14 14 10 11 12 13 14 17 21 17 19 16 16 16 17 18 15 16 19 12 11 13 12 11 11
1 1 1 1 1 2 2 2 2 2 2 2 5 2 3 8 9 7 7 6 7 8 11 12 12 14 11 13 16 16 19 20 19 21 13 17 15 17 15 15 11 11 10 9 9 10 10

GFSGBSN_con_lsi_084.txt.gz
Lid_Strength_Index
-1 0 -0 -1 -1 -1 -1 -1 -1 -1 -1 -1 -1 -1 -1 -1 -1 0 1 -0 1 1 -1 0 -1 -1 3 7 7 4 1 1 5 6 7 9 10 11 12 11 11 13 13 12 11 11 12
-1 -0 -0 -0 -1 -1 -1 -1 -1 -0 -1 -1 -1 -1 -1 -1 -1 -0 1 0 2 -0 -0 1 -1 -1 5 11 4 5 5 5 6 7 8 9 9 10 11 12 12 11 12 12 11 12 12
-1 -1 -0 -0 -1 -1 -1 -1 -1 -1 -0 -1 -1 -1 -1 -1 -1 -1 1 0 1 -0 0 0 -0 1 7 9 4 5 5 6 6 7 8 8 9 10 10 12 11 12 13 13 13 12 13
-0 -0 -1 -0 -1 -1 -1 -1 -1 -1 -1 -0 -1 -1 -1 -1 -1 -1 0 -1 -1 -0 -0 -0 -1 4 10 4 4 5 6 6 6 6 7 7 7 8 10 11 12 14 15 16 15 12 13
-0 0 0 0 -1 -1 -1 -1 -1 -0 -0 -0 -1 -0 -0 -1 -1 -1 0 -1 -0 -1 -0 -0 4 8 10 2 6 6 6 6 6 7 7 6 8 10 11 14 15 15 18 17 15 12 13
1 1 1 1 1 0 -0 -0 -1 -0 -0 -0 -1 0 -0 -1 -1 -1 -1 -1 -0 1 3 3 6 11 8 8 5 5 6 6 8 7 8 9 11 13 15 15 18 17 17 17 17 15 13
2 2 2 1 1 1 1 1 -0 -0 -0 -0 -0 0 -0 -1 -1 -1 1 4 8 10 8 10 10 11 8 5 4 6 6 7 8 10 12 12 14 15 14 15 16 16 16 17 16 13 14
3 3 3 3 2 1 1 1 2 1 1 0 0 -0 0 -0 -1 -1 1 7 8 8 12 9 10 8 7 6 9 7 6 9 10 13 12 13 15 13 12 14 14 16 16 17 15 13 14
4 3 3 4 3 3 2 2 2 2 2 2 2 1 0 -0 -0 1 3 4 2 4 11 9 10 9 8 8 10 8 7 9 12 13 13 14 13 12 13 14 15 16 16 17 17 16 16
2 4 5 5 4 4 3 3 3 3 4 3 3 3 2 1 2 3 4 2 1 3 12 11 12 10 7 7 10 7 7 8 12 13 13 14 13 13 14 15 15 17 14 14 15 17 18
2 3 4 5 5 5 5 4 4 4 4 4 4 4 3 2 3 4 3 2 2 6 19 10 9 7 9 10 10 10 8 9 12 12 12 14 13 14 14 13 13 15 13 14 16 17 18
1 2 3 5 5 5 5 5 5 5 5 5 5 4 4 2 2 2 2 2 4 13 20 12 9 10 11 11 11 10 10 9 10 12 12 14 12 12 13 13 13 12 14 15 17 18 21
-0 1 2 4 5 5 5 5 5 5 5 5 5 5 5 5 4 1 2 5 14 18 12 13 12 12 12 12 12 12 13 14 15 17 16 14 14 13 12 13 13 15 16 20 21 21 21
-1 -0 0 2 3 5 6 6 6 6 6 6 6 5 6 5 4 1 3 10 17 14 14 12 12 13 13 12 12 12 13 14 14 16 16 16 17 13 12 13 14 15 15 19 23 23 21
-1 -1 0 1 0 3 5 6 6 6 6 6 5 6 7 5 3 3 7 15 15 13 11 13 13 15 15 13 13 13 13 14 13 13 16 17 16 13 13 12 11 14 17 15 19 26 22
-1 -1 -0 -0 0 1 2 5 6 6 6 5 8 8 8 4 3 4 10 13 12 9 10 11 14 13 16 15 14 14 14 13 13 12 13 14 16 14 13 12 12 14 13 16 18 24 25
-1 -0 -1 -1 -0 -0 0 2 5 5 5 5 8 11 8 5 4 8 14 13 11 8 8 11 13 14 14 15 14 15 14 13 12 12 12 13 14 15 13 14 15 15 15 16 16 18 22
-0 -0 -0 -0 -0 -0 -0 1 2 4 6 7 10 14 8 5 9 11 14 11 9 9 8 9 10 11 13 14 15 15 15 14 11 12 13 12 14 17 15 14 13 14 15 15 18 20 20
1 0 -0 -0 -0 -0 -0 0 1 2 3 9 12 13 8 6 13 13 11 10 9 10 9 10 11 10 10 12 15 13 13 11 11 12 13 12 15 20 16 15 14 15 15 14 15 16 19
1 1 0 -0 -0 -0 -0 -0 1 1 2 7 12 15 13 9 10 12 13 12 12 8 9 9 10 9 11 12 11 13 12 11 10 10 8 10 14 16 17 16 14 15 14 14 14 17 17
0 1 1 0 0 -0 -0 -0 -1 0 1 6 12 15 14 15 13 13 12 12 13 13 10 9 10 11 12 13 13 13 12 12 11 10 10 11 15 15 15 14 14 15 15 15 16 15 17
1 1 0 1 0 0 -0 -0 -1 -0 1 7 11 14 14 15 14 13 12 14 13 13 12 12 12 10 11 13 12 13 13 13 13 11 12 12 15 15 16 14 15 16 15 15 15 15 15
2 1 1 0 0 0 0 -0 -0 -1 1 7 8 8 11 14 15 14 14 14 14 12 12 11 11 11 12 11 10 9 10 10 11 12 12 13 14 15 17 16 15 17 15 15 15 14 14
2 2 1 1 0 0 0 0 -0 -0 1 5 7 8 12 16 13 13 14 13 14 13 13 13 11 11 11 10 10 11 12 12 12 12 11 14 15 16 21 18 21 17 17 16 14 14 13
2 2 2 1 0 0 0 0 -0 -0 -0 3 6 8 12 17 12 13 13 13 12 12 13 14 13 12 11 12 14 15 15 14 15 15 13 12 15 20 19 21 20 18 17 18 17 16 13
2 2 2 1 1 1 1 0 -0 -0 0 2 4 5 8 14 15 10 12 11 14 14 15 14 12 11 12 15 17 19 19 18 17 16 14 14 14 16 24 23 25 19 19 17 16 20 16
1 2 2 2 2 1 1 1 0 -0 -0 2 3 3 6 11 11 10 13 12 11 12 14 16 14 12 12 16 21 21 21 19 19 18 17 16 16 18 25 24 23 18 16 16 22 20 18
2 1 1 2 1 1 1 1 1 1 0 1 3 2 5 9 9 9 9 11 12 12 15 15 12 11 14 16 18 21 23 19 20 18 17 16 17 18 21 23 21 16 17 17 15 15 14
2 1 2 1 1 1 1 1 1 1 1 0 4 2 3 8 8 7 8 7 7 8 9 12 13 14 11 14 17 18 23 23 22 23 15 16 15 17 16 17 15 15 14 13 13 14 13